Regional Weather Roundup
Issued by NWS Binghamton, NY

Home | Current Version | Previous Version | Text Only | Print | Product List | Glossary On
Versions: 1 2 3 4 5 6 7 8 9 10 11 12 13 14 15 16 17 18 19 20 21 22 23 24 25 26 27 28
000
ASUS41 KBGM 162010
RWRBGM
RWRBGM
BINGHAMTON REGIONAL WEATHER ROUNDUP
NATIONAL WEATHER SERVICE BINGHAMTON NY
400 PM EDT WED APR 16 2014

Note: "fair" indicates few or no clouds below 12,000 feet with no
significant weather and/or obstructions to visibility.

* = Station(s) that does not report precipitation, such as rain,
snow, etc, also no thunder or fog.

!NYZ009-015>018-022>025-036-037-044>046-055>057-062-162100
...CENTRAL NEW YORK...

CITY           SKY/WX    TMP DP  RH WIND       PRES   REMARKS
BINGHAMTON     SUNNY     34  15  46 N7G20     30.42R WCI  28
CORTLAND       FAIR      32  18  55 N3        30.47S
DANSVILLE      SUNNY     38  15  39 NW6       30.48F WCI  33
ELMIRA         SUNNY     38  15  39 VRB7G17   30.45S WCI  33
ITHACA         MOSUNNY   34  18  52 CALM      30.47F
HAMILTON       PTCLDY    36  19  51 N7        30.45  WCI  30
MONTICELLO     SUNNY     36  21  55 N14G20    30.41S WCI  27
NORWICH        SUNNY     36   9  32 NW8       30.46R WCI  29
ONEONTA        SUNNY     30  12  47 N9        30.40S WCI  22
PENN YAN       SUNNY     37  15  40 VRB7      30.46F WCI  32
ROME           SUNNY     34  14  43 W12       30.50S WCI  25
SIDNEY         SUNNY     39  18  41 NE3       30.45R
SYRACUSE       MOSUNNY   35  10  35 VRB6      30.50F WCI  30
$$

!PAZ038>040-043-044-047-048-072-162100
...NORTHEAST PENNSYLVANIA...

CITY           SKY/WX    TMP DP  RH WIND       PRES   REMARKS
SCRANTON       MOSUNNY   39  19  44 N7        30.44S WCI  34
TOWANDA*       CLEAR     39   9  28 N5        30.47F
$$
&&
KEY
WCI = WIND CHILL INDEX
VSB = VISIBILITY
HX  = HEAT INDEX
$$



USA.gov is the U.S. government's official web portal to all federal, state and local government web resources and services.